TimeAKDT,TemperatureF,Dew PointF,Humidity,Sea Level PressureIn,VisibilityMPH,Wind Direction,Wind SpeedMPH,Gust SpeedMPH,PrecipitationIn,Events,Conditions,WindDirDegrees,DateUTC
12:16 AM,26.6,24.8,93,30.51,10.0,Calm,Calm,-,N/A,,Overcast,0,2012-10-21 08:16:00
12:36 AM,26.6,24.8,93,30.51,8.0,Calm,Calm,-,N/A,,Overcast,0,2012-10-21 08:36:00
12:56 AM,26.6,24.8,93,30.50,10.0,NE,3.5,-,N/A,,Overcast,50,2012-10-21 08:56:00
1:16 AM,26.6,24.8,93,30.50,10.0,Calm,Calm,-,N/A,,Overcast,0,2012-10-21 09:16:00
1:36 AM,26.6,24.8,93,30.50,10.0,Calm,Calm,-,N/A,,Overcast,0,2012-10-21 09:36:00
1:56 AM,26.6,24.8,93,30.49,10.0,ESE,3.5,-,N/A,,Overcast,110,2012-10-21 09:56:00
2:16 AM,26.6,23.0,86,30.48,10.0,Calm,Calm,-,N/A,,Mostly Cloudy,0,2012-10-21 10:16:00
2:36 AM,24.8,23.0,93,30.48,10.0,Calm,Calm,-,N/A,,Partly Cloudy,0,2012-10-21 10:36:00
2:56 AM,24.8,23.0,93,30.48,10.0,ESE,5.8,-,N/A,,Clear,120,2012-10-21 10:56:00
3:16 AM,24.8,21.2,86,30.47,10.0,ENE,3.5,-,N/A,,Clear,70,2012-10-21 11:16:00
3:36 AM,24.8,21.2,86,30.47,10.0,Calm,Calm,-,N/A,,Partly Cloudy,0,2012-10-21 11:36:00
3:56 AM,23.0,19.4,86,30.47,10.0,Calm,Calm,-,N/A,,Partly Cloudy,0,2012-10-21 11:56:00
4:16 AM,24.8,21.2,86,30.47,10.0,East,5.8,-,N/A,,Clear,90,2012-10-21 12:16:00
4:36 AM,23.0,19.4,86,30.46,10.0,East,8.1,-,N/A,,Clear,100,2012-10-21 12:36:00
4:56 AM,21.2,19.4,93,30.46,10.0,ESE,5.8,-,N/A,,Partly Cloudy,120,2012-10-21 12:56:00
5:16 AM,21.2,19.4,93,30.45,10.0,East,6.9,-,N/A,,Partly Cloudy,90,2012-10-21 13:16:00
5:36 AM,21.2,19.4,93,30.45,10.0,East,6.9,-,N/A,,Clear,90,2012-10-21 13:36:00
5:56 AM,21.2,19.4,93,30.44,10.0,East,8.1,-,N/A,,Clear,90,2012-10-21 13:56:00
6:16 AM,21.2,19.4,93,30.44,10.0,East,8.1,-,N/A,,Clear,100,2012-10-21 14:16:00
6:36 AM,21.2,17.6,86,30.43,10.0,ESE,5.8,-,N/A,,Clear,120,2012-10-21 14:36:00
6:56 AM,19.4,17.6,93,30.43,10.0,ESE,5.8,-,N/A,,Clear,120,2012-10-21 14:56:00
7:16 AM,19.4,19.4,100,30.42,10.0,East,6.9,-,N/A,,Mostly Cloudy,100,2012-10-21 15:16:00
7:36 AM,19.4,17.6,93,30.41,10.0,East,6.9,-,N/A,,Scattered Clouds,100,2012-10-21 15:36:00
7:56 AM,19.4,15.8,86,30.42,10.0,ESE,6.9,-,N/A,,Clear,120,2012-10-21 15:56:00
8:16 AM,19.4,15.8,86,30.42,10.0,Calm,Calm,-,N/A,,Clear,0,2012-10-21 16:16:00
8:36 AM,17.6,14.0,86,30.41,10.0,ESE,4.6,-,N/A,,Clear,110,2012-10-21 16:36:00
8:56 AM,17.6,15.8,93,30.41,10.0,ESE,6.9,-,N/A,,Clear,110,2012-10-21 16:56:00
9:16 AM,17.6,15.8,93,30.40,10.0,ESE,8.1,-,N/A,,Clear,110,2012-10-21 17:16:00
9:36 AM,17.6,15.8,93,30.40,10.0,East,6.9,-,N/A,,Clear,100,2012-10-21 17:36:00
9:56 AM,17.6,15.8,93,30.39,10.0,East,8.1,-,N/A,,Clear,90,2012-10-21 17:56:00
10:16 AM,17.6,15.8,93,30.39,10.0,East,5.8,-,N/A,,Clear,100,2012-10-21 18:16:00
10:36 AM,19.4,17.6,93,30.39,10.0,East,6.9,-,N/A,,Clear,100,2012-10-21 18:36:00
10:56 AM,19.4,17.6,93,30.38,10.0,East,8.1,-,N/A,,Clear,100,2012-10-21 18:56:00
11:16 AM,19.4,17.6,93,30.38,10.0,East,6.9,-,N/A,,Clear,100,2012-10-21 19:16:00
11:36 AM,19.4,17.6,93,30.38,10.0,East,9.2,-,N/A,,Clear,100,2012-10-21 19:36:00
11:56 AM,21.2,17.6,86,30.38,10.0,ESE,5.8,-,N/A,,Clear,110,2012-10-21 19:56:00
12:16 PM,21.2,17.6,86,30.38,10.0,East,8.1,-,N/A,,Clear,100,2012-10-21 20:16:00
12:36 PM,21.2,17.6,86,30.38,10.0,East,4.6,-,N/A,,Clear,100,2012-10-21 20:36:00
12:56 PM,21.2,17.6,86,30.37,10.0,East,5.8,-,N/A,,Clear,90,2012-10-21 20:56:00
1:16 PM,23.0,19.4,86,30.37,10.0,East,5.8,-,N/A,,Clear,100,2012-10-21 21:16:00
1:36 PM,24.8,19.4,80,30.37,10.0,East,6.9,-,N/A,,Clear,100,2012-10-21 21:36:00
1:56 PM,24.8,19.4,80,30.36,10.0,East,4.6,-,N/A,,Clear,100,2012-10-21 21:56:00
2:16 PM,24.8,21.2,86,30.36,10.0,East,5.8,-,N/A,,Clear,90,2012-10-21 22:16:00
2:36 PM,26.6,21.2,80,30.36,10.0,East,5.8,-,N/A,,Partly Cloudy,100,2012-10-21 22:36:00
2:56 PM,26.6,21.2,80,30.36,10.0,East,4.6,-,N/A,,Partly Cloudy,80,2012-10-21 22:56:00
3:16 PM,26.6,21.2,80,30.36,10.0,East,4.6,-,N/A,,Mostly Cloudy,100,2012-10-21 23:16:00
3:36 PM,28.4,21.2,74,30.35,10.0,ESE,4.6,-,N/A,,Mostly Cloudy,120,2012-10-21 23:36:00
3:56 PM,28.4,21.2,74,30.35,10.0,ESE,4.6,-,N/A,,Overcast,120,2012-10-21 23:56:00
4:16 PM,28.4,19.4,69,30.34,10.0,ESE,4.6,-,N/A,,Overcast,120,2012-10-22 00:16:00
4:36 PM,28.4,21.2,74,30.34,10.0,SE,3.5,-,N/A,,Mostly Cloudy,130,2012-10-22 00:36:00
4:56 PM,28.4,21.2,74,30.34,10.0,Calm,Calm,-,N/A,,Overcast,0,2012-10-22 00:56:00
5:16 PM,28.4,19.4,69,30.34,10.0,SSE,3.5,-,N/A,,Overcast,150,2012-10-22 01:16:00
5:56 PM,28.4,19.4,69,30.33,10.0,ESE,5.8,-,N/A,,Overcast,110,2012-10-22 01:56:00
6:16 PM,28.4,21.2,74,30.33,10.0,ESE,5.8,-,N/A,,Overcast,120,2012-10-22 02:16:00
6:36 PM,28.4,19.4,69,30.33,10.0,Calm,Calm,-,N/A,,Overcast,0,2012-10-22 02:36:00
6:56 PM,28.4,21.2,74,30.33,7.0,ESE,5.8,-,N/A,,Overcast,120,2012-10-22 02:56:00
7:16 PM,28.4,21.2,74,30.33,4.0,ESE,5.8,-,N/A,,Overcast,120,2012-10-22 03:16:00
7:36 PM,28.4,21.2,74,30.33,2.5,ESE,5.8,-,N/A,,Overcast,110,2012-10-22 03:36:00
7:56 PM,26.6,21.2,80,30.33,3.0,ESE,4.6,-,N/A,,Overcast,120,2012-10-22 03:56:00
8:16 PM,26.6,21.2,80,30.33,3.0,ESE,5.8,-,N/A,,Overcast,120,2012-10-22 04:16:00
8:36 PM,26.6,21.2,80,30.33,8.0,ESE,8.1,-,N/A,,Overcast,110,2012-10-22 04:36:00
8:56 PM,26.6,21.2,80,30.33,10.0,East,5.8,-,N/A,,Overcast,100,2012-10-22 04:56:00
9:16 PM,26.6,21.2,80,30.33,10.0,East,5.8,-,N/A,,Overcast,90,2012-10-22 05:16:00
9:56 PM,26.6,19.4,74,30.33,10.0,ESE,6.9,-,N/A,,Overcast,120,2012-10-22 05:56:00
10:16 PM,26.6,21.2,80,30.33,10.0,ESE,6.9,-,N/A,,Overcast,120,2012-10-22 06:16:00
10:36 PM,26.6,21.2,80,30.34,8.0,East,8.1,-,N/A,,Overcast,100,2012-10-22 06:36:00
10:56 PM,24.8,21.2,86,30.34,3.0,ESE,8.1,-,N/A,,Overcast,110,2012-10-22 06:56:00
11:16 PM,24.8,21.2,86,30.35,5.0,ESE,5.8,-,N/A,,Overcast,120,2012-10-22 07:16:00
11:36 PM,24.8,21.2,86,30.35,5.0,ESE,9.2,-,N/A,,Overcast,110,2012-10-22 07:36:00
11:56 PM,24.8,21.2,86,30.34,10.0,ESE,8.1,-,N/A,,Overcast,110,2012-10-22 07:56:00